Tracking 30308 objects as of 19-Apr-2025
HD Live streaming from Space Station
objects crossing your sky now

IRIDIUM 33 DEB

Track IRIDIUM 33 DEB now!
10-day predictions


NORAD ID: 38228
Int'l Code: 1997-051ZC
Perigee: 765.2 km
Apogee: 854.2 km
Inclination: 86.3 °
Period: 100.9 minutes
Semi major axis: 7180 km
RCS: 0.0068 m2 (small)
Launch date: September 14, 1997
Source: United States (US)
Launch site: TYURATAM MISSILE AND SPACE COMPLEX (TTMTR)

Note: This is SATELLITE DEBRIS
Your satellite tracking list
Your tracking list is empty




NASA's NSSDC Master Catalog

Two Line Element Set (TLE):
1 38228U 97051ZC  25106.39076302  .00001751  00000-0  70147-3 0  9995
2 38228  86.2973 150.5926 0061989 244.0588 133.5638 14.26769068813541
Source of the keplerian elements: AFSPC